Location: Bs. As. Argentina
(34.6000°S, 58.6333°W)
Time: 11:39:30
(UTC-03:00)

Hubble Space Telescope - Visible Passes

Search period start: 19 September 2024 00:00
Search period end: 29 September 2024 00:00
Orbit: 505 x 509 km, 28.5° (Epoch: 18 September)

Date Brightness Start Highest point End Pass type
(mag) Time Alt. Az. Time Alt. Az. Time Alt. Az.
20 Sep 3.1 20:38:50 10° NNW 20:39:38 13° NNW 20:39:38 13° NNW visible
21 Sep 2.4 20:17:49 10° NNW 20:20:17 19° N 20:20:17 19° N visible
22 Sep 2.2 19:56:47 10° NW 19:59:51 21° NNE 20:00:51 19° NE visible
23 Sep 2.2 19:35:46 10° NW 19:38:55 23° NNE 19:41:20 14° ENE visible
23 Sep 3.4 21:15:22 10° WNW 21:16:02 14° WNW 21:16:02 14° WNW visible
24 Sep 2.2 19:14:44 10° NW 19:18:00 24° NNE 19:21:15 10° ENE visible
24 Sep 2.5 20:54:26 10° WNW 20:56:27 24° NW 20:56:27 24° NW visible
25 Sep 1.7 20:33:31 10° WNW 20:36:48 33° NNW 20:36:48 33° NNW visible
26 Sep 1.7 20:12:33 10° WNW 20:16:11 33° N 20:17:07 29° NNE visible
27 Sep 1.8 19:51:35 10° WNW 19:55:12 33° N 19:57:23 19° NE visible
28 Sep 1.8 19:30:37 10° WNW 19:34:13 32° N 19:37:39 11° ENE visible
28 Sep 3.3 21:11:23 10° WNW 21:12:20 14° NW 21:12:20 14° NW visible
